Regional Weather Roundup
Issued by NWS

Home | Current Version | Previous Version | Text Only | Print | Product List | Glossary Off
Versions: 1 2 3 4 5 6 7 8 9 10 11 12 13 14 15 16 17 18 19 20 21 22 23 24 25 26 27 28 29 30 31 32 33 34 35 36 37 38 39 40 41 42 43 44 45 46 47 48 49 50

000
ASUS43 KLSX 270207
RWRMO

WEATHER SUMMARY FOR MISSOURI
NATIONAL WEATHER SERVICE SPRINGFIELD MO
800 PM CST MON JAN 26 2015

NOTE: "FAIR" INDICATES FEW OR NO CLOUDS BELOW 12,000 FEET WITH NO
       SIGNIFICANT WEATHER AND/OR OBSTRUCTIONS TO VISIBILITY.
       CURRENT SKY AND/OR WEATHER CONDITIONS ARE NOT AVAILABLE FOR
       CHILLICOTHE AND FARMINGTON.

MOZ001>031-035>038-043-044-053-054-270300-
...NORTHERN AND WESTERN MISSOURI...

CITY           SKY/WX    TMP DP  RH WIND       PRES   REMARKS
KANSAS CTY INT CLEAR     48  33  56 NW7       30.00R
KANSAS C DTWN  CLEAR     49  32  52 CALM      29.99R
LEE`S SUMMIT   CLEAR     50  32  50 NW7       29.99R
ST JOSEPH      CLEAR     36  29  75 CALM      30.00R
CHILLICOTHE      N/A     46  34  62 NW3       29.96R
KIRKSVILLE     CLEAR     43  36  76 NW12      29.92R

$$
MOZ066>068-077>081-088>096-101>105-270300-
...SOUTHWEST MISSOURI...

CITY           SKY/WX    TMP DP  RH WIND       PRES   REMARKS
SPRINGFIELD    CLEAR     39  32  76 CALM      29.98R
JOPLIN         CLEAR     49  34  56 MISG      30.01R

$$
MOZ032>034-039>042-045>050-055>058-069>072-270300-
...CENTRAL MISSOURI...

CITY           SKY/WX    TMP DP  RH WIND       PRES   REMARKS
COLUMBIA       CLEAR     44  35  70 W8        29.92S
JEFFERSON CITY CLEAR     42  34  73 NW3       29.94R
ROLLA          CLEAR     44  34  67 W8        29.91R
SEDALIA        CLEAR     45  33  63 W7        29.96S
WHITEMAN AFB   CLEAR     49  34  55 NW10      29.96R
WARRENSBURG    CLEAR     46  32  57 W6        29.98R
OSAGE BEACH    CLEAR     45  34  65 W5        29.95S

$$
MOZ051-052-059>065-270300-
...EAST CENTRAL MISSOURI...

CITY           SKY/WX    TMP DP  RH WIND       PRES   REMARKS
ST LOUIS INTL  MOCLDY    34  27  75 SE3       29.92S
SPIRIT OF STL  CLEAR     31  27  85 CALM      29.91R
ST CHARLES     CLOUDY    34  30  85 CALM      29.92R

$$
MOZ072>076-082>087-097>100-106>115-270300-
...SOUTH CENTRAL AND SOUTHEAST MISSOURI...

CITY           SKY/WX    TMP DP  RH WIND       PRES   REMARKS
CAPE GIRARDEAU CLEAR     32  30  92 SE5       29.94F WCI  27
FARMINGTON     CLEAR     36  28  75 MISG      29.93R
POPLAR BLUFF   CLEAR     35  31  85 CALM      29.92S
WEST PLAINS    CLEAR     49  33  54 W9        29.94R

$$



USA.gov is the U.S. government's official web portal to all federal, state and local government web resources and services.